Regional Weather Roundup
Issued by NWS

Home | Current Version | Previous Version | Graphics & Text | Print | Product List | Glossary On
Versions: 1 2 3 4 5 6 7 8 9 10 11 12 13 14 15 16 17 18 19 20 21 22 23 24 25 26 27 28 29 30 31 32 33 34 35 36 37 38 39 40 41 42 43 44 45 46 47 48 49 50
000
ASUS43 KBIS 260601
RWRND

NORTH DAKOTA REGIONAL WEATHER ROUNDUP
NATIONAL WEATHER SERVICE BISMARCK ND
1200 AM CST MON JAN 26 2015

NOTE: "FAIR" INDICATES FEW OR NO CLOUDS BELOW 12,000 FEET WITH NO
SIGNIFICANT WEATHER AND/OR OBSTRUCTIONS TO VISIBILITY.


NDZ001>003-009>011-017-260700-
NORTHWEST NORTH DAKOTA

CITY           SKY/WX    TMP DP  RH WIND       PRES   REMARKS
WILLISTON      MOCLDY    40  33  76 SW9       29.84R
6HR MIN TEMP:  38; 6HR MAX TEMP:  43;

MINOT          PTCLDY    40  32  73 W18       29.72R
MINOT AFB      PTCLDY    38  37  96 NW17      29.71R
$$

NDZ018>021-031>035-040>046-260700-
SOUTHWEST NORTH DAKOTA

CITY           SKY/WX    TMP DP  RH WIND       PRES   REMARKS
BISMARCK       PTCLDY    34  30  85 SW5       29.77F
6HR MIN TEMP:  33; 6HR MAX TEMP:  37;

DICKINSON      PTCLDY    41  34  76 W16       29.82R
GARRISON         N/A     39  34  82 W12G18    29.75R
6HR MIN TEMP:  34; 6HR MAX TEMP:  39;

HETTINGER ARPT CLEAR     40  33  76 W16       29.87R
$$

NDZ004>008-012>016-024-026-027-054-260700-
NORTHEAST NORTH DAKOTA

CITY           SKY/WX    TMP DP  RH WIND       PRES   REMARKS
GRAND FORKS    MOCLDY    30  26  85 S7        29.70R
GRND FRKS AFB  MOCLDY    30  27  86 SE5       29.68R
DEVILS LAKE    MOCLDY    37  34  87 W22       29.62F
$$

NDZ022-023-025-028>030-036>039-047>053-260700-
SOUTHEAST NORTH DAKOTA

CITY           SKY/WX    TMP DP  RH WIND       PRES   REMARKS
FARGO          FLURRIES  29  24  82 S21       29.77F WCI  16
6HR MIN TEMP:  26; 6HR MAX TEMP:  29; 6HR PCP: TRACE;

JAMESTOWN      MOCLDY    36  29  75 SW9       29.70F
$$




USA.gov is the U.S. government's official web portal to all federal, state and local government web resources and services.